MRLM

Limón International Airport

Airport
ICAO code
MRLM
IATA Code
LIO
Summary
ICAO Region
CARSAM
ICAO Territory
Location

Limón, Limón Province

Serving
Limón
Elevation
7 ft
Coordinates
9° 57' 47" N , 83° 1' 31" W
KCC
Metar
MRLM 221200Z 00000KT 9999 SCT015 BKN100 22/21 A3001

Limón International Airport in Limón, Costa Rica, is one of the four international airports in that country.

Climatology

Tropical rainforest climate (Köppen climate classification Af)

Runways

Designator Length Width Surface Rops
14/32 1800 30 ASP No/No

Airport map

Aerial View

SKYbrary Partners:

Safety knowledge contributed by: